GFSNE_prec_precacc24_042.txt.gz
Total_Precipitation_Accumulation
0.06 0.05 0.04 0.02 0.02 0.01 0.01 0.05 0.14 0.10 0.01 0.00 0.00 0.00 0.00 0.00 0.00 0.00 0.00 0.00 0.00 0.00 0.00 0.00 0.00 0.00 0.00 0.00 0.01 0.01 0.01 0.02 0.04 0.06 0.09 0.09 0.09 0.09
0.03 0.03 0.02 0.03 0.03 0.02 0.02 0.01 0.02 0.04 0.01 0.00 0.00 0.00 0.00 0.00 0.00 0.00 0.00 0.00 0.00 0.00 0.00 0.00 0.00 0.00 0.00 0.00 0.00 0.00 0.00 0.02 0.04 0.04 0.06 0.07 0.08 0.07
0.02 0.02 0.02 0.02 0.01 0.01 0.00 0.00 0.00 0.00 0.00 0.00 0.00 0.00 0.00 0.00 0.00 0.00 0.00 0.00 0.00 0.00 0.00 0.00 0.00 0.00 0.00 0.00 0.01 0.01 0.01 0.01 0.06 0.07 0.05 0.06 0.06 0.05
0.00 0.00 0.00 0.00 0.00 0.00 0.00 0.00 0.00 0.00 0.00 0.00 0.00 0.00 0.00 0.00 0.00 0.00 0.00 0.00 0.00 0.00 0.01 0.01 0.00 0.01 0.00 0.00 0.01 0.03 0.01 0.01 0.01 0.08 0.12 0.06 0.06 0.04
0.00 0.00 0.00 0.00 0.00 0.00 0.00 0.00 0.00 0.00 0.00 0.01 0.01 0.00 0.00 0.00 0.01 0.01 0.01 0.00 0.00 0.00 0.01 0.01 0.01 0.01 0.01 0.01 0.02 0.03 0.05 0.00 0.01 0.01 0.14 0.19 0.07 0.07
0.00 0.00 0.00 0.00 0.00 0.00 0.00 0.00 0.00 0.01 0.01 0.01 0.01 0.01 0.02 0.01 0.02 0.03 0.04 0.03 0.02 0.01 0.01 0.01 0.02 0.02 0.01 0.01 0.03 0.06 0.05 0.05 0.02 0.01 0.01 0.21 0.29 0.11
0.00 0.00 0.00 0.00 0.00 0.00 0.00 0.00 0.01 0.02 0.02 0.02 0.02 0.02 0.02 0.02 0.04 0.06 0.08 0.04 0.02 0.02 0.03 0.03 0.04 0.03 0.03 0.03 0.04 0.09 0.07 0.08 0.06 0.03 0.02 0.03 0.26 0.40
0.00 0.00 0.00 0.00 0.00 0.00 0.00 0.00 0.01 0.04 0.09 0.06 0.05 0.04 0.03 0.05 0.06 0.07 0.08 0.07 0.05 0.04 0.08 0.06 0.05 0.07 0.08 0.12 0.16 0.16 0.21 0.18 0.15 0.07 0.02 0.01 0.05 0.22
0.00 0.00 0.00 0.00 0.00 0.00 0.00 0.00 0.01 0.02 0.04 0.05 0.07 0.07 0.07 0.06 0.06 0.07 0.10 0.12 0.10 0.04 0.06 0.05 0.03 0.04 0.01 0.01 0.02 0.03 0.09 0.16 0.16 0.14 0.08 0.03 0.01 0.08
0.00 0.00 0.00 0.00 0.00 0.00 0.03 0.02 0.01 0.00 0.01 0.02 0.04 0.04 0.03 0.03 0.06 0.08 0.11 0.10 0.04 0.01 0.03 0.06 0.02 0.02 0.01 0.00 0.00 0.00 0.03 0.12 0.24 0.21 0.15 0.10 0.02 0.07
0.00 0.00 0.00 0.00 0.00 0.01 0.02 0.02 0.00 0.00 0.00 0.00 0.01 0.02 0.01 0.01 0.03 0.11 0.10 0.12 0.09 0.04 0.04 0.07 0.04 0.03 0.01 0.00 0.00 0.00 0.01 0.06 0.15 0.26 0.24 0.23 0.08 0.04
0.00 0.00 0.00 0.00 0.01 0.01 0.01 0.01 0.02 0.02 0.00 0.01 0.01 0.01 0.02 0.03 0.03 0.06 0.10 0.19 0.17 0.14 0.06 0.16 0.07 0.09 0.10 0.07 0.03 0.02 0.01 0.04 0.11 0.18 0.25 0.27 0.16 0.08
0.00 0.00 0.00 0.00 0.00 0.00 0.00 0.01 0.03 0.01 0.01 0.01 0.02 0.02 0.02 0.03 0.04 0.07 0.08 0.10 0.13 0.09 0.02 0.26 0.15 0.08 0.14 0.09 0.06 0.04 0.02 0.03 0.06 0.15 0.22 0.26 0.26 0.19
0.00 0.00 0.00 0.00 0.00 0.00 0.00 0.00 0.00 0.00 0.01 0.02 0.02 0.02 0.02 0.02 0.02 0.03 0.07 0.08 0.08 0.12 0.08 0.10 0.17 0.09 0.09 0.05 0.03 0.05 0.03 0.04 0.05 0.11 0.23 0.26 0.33 0.23
0.00 0.00 0.00 0.00 0.00 0.01 0.00 0.00 0.00 0.00 0.01 0.01 0.02 0.02 0.02 0.03 0.04 0.07 0.07 0.08 0.06 0.06 0.04 0.08 0.09 0.05 0.05 0.07 0.05 0.04 0.06 0.05 0.05 0.11 0.41 0.39 0.40 0.27
0.01 0.01 0.02 0.03 0.04 0.03 0.02 0.02 0.00 0.00 0.01 0.02 0.02 0.02 0.02 0.03 0.04 0.07 0.10 0.13 0.19 0.23 0.18 0.18 0.14 0.12 0.06 0.06 0.07 0.06 0.07 0.12 0.10 0.10 0.32 0.57 0.55 0.45
0.02 0.04 0.04 0.03 0.03 0.02 0.01 0.01 0.01 0.00 0.00 0.00 0.01 0.01 0.01 0.01 0.02 0.03 0.06 0.09 0.15 0.12 0.16 0.20 0.16 0.13 0.09 0.11 0.12 0.04 0.03 0.03 0.10 0.33 0.16 0.35 0.46 0.48
0.11 0.06 0.02 0.02 0.02 0.01 0.02 0.02 0.01 0.00 0.00 0.00 0.01 0.01 0.01 0.01 0.01 0.02 0.03 0.04 0.05 0.04 0.07 0.08 0.25 0.18 0.15 0.10 0.12 0.18 0.08 0.03 0.04 0.04 0.06 0.27 0.36 0.57
0.16 0.02 0.01 0.01 0.01 0.02 0.03 0.03 0.02 0.00 0.00 0.00 0.00 0.01 0.01 0.01 0.01 0.01 0.01 0.02 0.01 0.01 0.02 0.03 0.08 0.23 0.31 0.27 0.15 0.04 0.19 0.11 0.06 0.03 0.02 0.13 0.36 0.34
0.07 0.02 0.01 0.01 0.02 0.03 0.03 0.03 0.02 0.00 0.00 0.00 0.00 0.01 0.01 0.01 0.01 0.01 0.01 0.01 0.01 0.00 0.00 0.00 0.01 0.02 0.20 0.44 0.30 0.05 0.04 0.40 0.14 0.09 0.06 0.04 0.09 0.24
0.05 0.03 0.01 0.02 0.03 0.03 0.03 0.03 0.02 0.01 0.00 0.00 0.00 0.00 0.00 0.01 0.01 0.01 0.01 0.00 0.00 0.00 0.00 0.00 0.00 0.01 0.05 0.13 0.26 0.12 0.02 0.13 0.11 0.08 0.05 0.05 0.05 0.03
0.06 0.04 0.03 0.03 0.03 0.03 0.04 0.04 0.02 0.01 0.00 0.00 0.00 0.00 0.00 0.01 0.00 0.01 0.00 0.00 0.00 0.00 0.00 0.00 0.00 0.01 0.08 0.13 0.23 0.12 0.04 0.02 0.01 0.01 0.01 0.03 0.07 0.12
0.08 0.06 0.04 0.04 0.04 0.05 0.05 0.05 0.02 0.01 0.00 0.00 0.00 0.00 0.00 0.01 0.00 0.00 0.00 0.00 0.00 0.00 0.00 0.00 0.00 0.02 0.07 0.05 0.08 0.15 0.07 0.05 0.03 0.02 0.01 0.01 0.02 0.03

GFSNE_prec_precacc24_048.txt.gz
Total_Precipitation_Accumulation
0.06 0.06 0.04 0.02 0.02 0.01 0.01 0.05 0.13 0.08 0.01 0.00 0.00 0.00 0.00 0.00 0.00 0.00 0.00 0.00 0.00 0.00 0.00 0.00 0.00 0.00 0.00 0.00 0.00 0.01 0.01 0.01 0.02 0.02 0.02 0.03 0.05 0.07
0.05 0.04 0.02 0.03 0.03 0.02 0.02 0.01 0.02 0.03 0.01 0.00 0.00 0.00 0.00 0.00 0.00 0.00 0.00 0.00 0.00 0.00 0.00 0.00 0.00 0.00 0.00 0.00 0.00 0.00 0.00 0.00 0.00 0.01 0.01 0.02 0.04 0.06
0.03 0.02 0.02 0.02 0.01 0.01 0.00 0.00 0.00 0.00 0.00 0.00 0.00 0.00 0.00 0.00 0.00 0.00 0.00 0.00 0.00 0.00 0.00 0.00 0.00 0.00 0.00 0.00 0.00 0.00 0.00 0.00 0.00 0.00 0.00 0.01 0.01 0.03
0.00 0.00 0.00 0.00 0.00 0.00 0.00 0.00 0.00 0.00 0.00 0.00 0.00 0.00 0.00 0.00 0.00 0.00 0.00 0.00 0.00 0.00 0.01 0.01 0.00 0.01 0.00 0.00 0.01 0.01 0.01 0.01 0.01 0.01 0.00 0.00 0.01 0.02
0.01 0.00 0.00 0.00 0.00 0.00 0.00 0.00 0.00 0.00 0.00 0.00 0.00 0.00 0.00 0.00 0.00 0.00 0.00 0.00 0.00 0.00 0.01 0.01 0.01 0.01 0.01 0.01 0.01 0.01 0.00 0.00 0.00 0.00 0.00 0.00 0.00 0.01
0.00 0.00 0.00 0.00 0.00 0.00 0.00 0.00 0.00 0.00 0.00 0.00 0.00 0.00 0.00 0.00 0.01 0.01 0.01 0.01 0.00 0.00 0.00 0.01 0.02 0.02 0.01 0.01 0.00 0.01 0.01 0.02 0.02 0.01 0.00 0.00 0.01 0.03
0.00 0.00 0.00 0.00 0.00 0.00 0.00 0.00 0.00 0.00 0.00 0.00 0.01 0.01 0.01 0.01 0.02 0.03 0.03 0.01 0.00 0.00 0.02 0.03 0.04 0.03 0.02 0.02 0.01 0.01 0.02 0.02 0.02 0.02 0.02 0.02 0.03 0.13
0.00 0.00 0.00 0.00 0.00 0.00 0.00 0.00 0.00 0.00 0.02 0.02 0.02 0.01 0.01 0.04 0.04 0.04 0.03 0.03 0.02 0.02 0.05 0.04 0.05 0.07 0.08 0.11 0.14 0.12 0.13 0.11 0.05 0.01 0.02 0.01 0.04 0.14
0.00 0.00 0.00 0.00 0.00 0.00 0.00 0.00 0.00 0.00 0.01 0.01 0.02 0.04 0.05 0.04 0.03 0.03 0.03 0.04 0.05 0.02 0.03 0.03 0.02 0.03 0.01 0.01 0.02 0.02 0.02 0.02 0.02 0.02 0.04 0.03 0.03 0.08
0.00 0.00 0.00 0.00 0.00 0.00 0.00 0.00 0.00 0.00 0.00 0.00 0.01 0.01 0.00 0.00 0.01 0.03 0.06 0.06 0.02 0.00 0.02 0.05 0.01 0.01 0.01 0.00 0.00 0.00 0.01 0.01 0.01 0.03 0.07 0.06 0.01 0.07
0.00 0.00 0.00 0.00 0.00 0.00 0.00 0.00 0.00 0.00 0.00 0.00 0.00 0.00 0.00 0.00 0.01 0.05 0.05 0.06 0.05 0.02 0.02 0.05 0.03 0.02 0.00 0.00 0.00 0.00 0.00 0.00 0.01 0.03 0.10 0.16 0.05 0.03
0.00 0.00 0.00 0.00 0.00 0.00 0.00 0.00 0.01 0.00 0.00 0.00 0.00 0.00 0.00 0.01 0.02 0.04 0.08 0.14 0.10 0.07 0.03 0.13 0.05 0.08 0.10 0.06 0.03 0.02 0.01 0.00 0.02 0.05 0.09 0.20 0.14 0.07
0.00 0.00 0.00 0.00 0.00 0.00 0.01 0.01 0.01 0.00 0.01 0.01 0.01 0.01 0.01 0.01 0.02 0.02 0.05 0.09 0.13 0.08 0.02 0.25 0.14 0.07 0.13 0.07 0.05 0.04 0.03 0.03 0.03 0.10 0.16 0.23 0.25 0.20
0.00 0.00 0.00 0.00 0.00 0.00 0.00 0.01 0.00 0.01 0.03 0.03 0.02 0.01 0.01 0.01 0.01 0.01 0.03 0.05 0.06 0.11 0.07 0.09 0.17 0.09 0.09 0.05 0.02 0.04 0.02 0.04 0.05 0.12 0.23 0.26 0.34 0.26
0.00 0.00 0.00 0.00 0.01 0.02 0.01 0.00 0.02 0.05 0.05 0.05 0.03 0.01 0.01 0.01 0.01 0.02 0.03 0.05 0.03 0.04 0.02 0.06 0.07 0.04 0.05 0.06 0.05 0.03 0.04 0.04 0.06 0.12 0.42 0.40 0.45 0.33
0.02 0.03 0.03 0.04 0.05 0.04 0.04 0.05 0.07 0.06 0.05 0.04 0.03 0.02 0.01 0.01 0.01 0.01 0.02 0.04 0.12 0.16 0.12 0.11 0.05 0.05 0.03 0.04 0.06 0.05 0.06 0.11 0.09 0.09 0.31 0.60 0.67 0.55
0.06 0.09 0.07 0.06 0.05 0.05 0.04 0.04 0.05 0.06 0.06 0.03 0.03 0.03 0.02 0.01 0.01 0.01 0.01 0.01 0.04 0.04 0.06 0.13 0.09 0.05 0.03 0.07 0.09 0.04 0.04 0.04 0.09 0.31 0.17 0.44 0.67 0.70
0.20 0.14 0.08 0.06 0.06 0.05 0.06 0.06 0.06 0.06 0.04 0.04 0.05 0.04 0.03 0.01 0.01 0.01 0.01 0.01 0.02 0.01 0.02 0.02 0.14 0.10 0.07 0.03 0.05 0.09 0.06 0.03 0.04 0.04 0.08 0.38 0.55 0.88
0.23 0.12 0.09 0.07 0.06 0.05 0.07 0.07 0.06 0.04 0.04 0.06 0.04 0.03 0.02 0.02 0.01 0.01 0.01 0.01 0.01 0.01 0.00 0.01 0.04 0.11 0.19 0.19 0.14 0.03 0.09 0.07 0.06 0.02 0.02 0.18 0.50 0.50
0.10 0.07 0.07 0.07 0.07 0.08 0.07 0.06 0.05 0.04 0.05 0.03 0.02 0.02 0.02 0.02 0.02 0.01 0.01 0.01 0.01 0.00 0.00 0.00 0.01 0.00 0.13 0.34 0.27 0.03 0.04 0.38 0.12 0.07 0.04 0.03 0.10 0.28
0.08 0.09 0.07 0.09 0.13 0.14 0.14 0.10 0.06 0.04 0.03 0.03 0.02 0.03 0.03 0.03 0.02 0.01 0.01 0.00 0.00 0.00 0.00 0.00 0.00 0.00 0.05 0.14 0.26 0.12 0.04 0.15 0.11 0.07 0.04 0.03 0.03 0.02
0.10 0.11 0.10 0.12 0.15 0.17 0.17 0.14 0.09 0.05 0.04 0.04 0.03 0.03 0.03 0.03 0.01 0.01 0.01 0.01 0.00 0.00 0.00 0.00 0.00 0.00 0.06 0.12 0.22 0.13 0.05 0.03 0.01 0.01 0.01 0.03 0.06 0.11
0.13 0.13 0.13 0.14 0.15 0.15 0.15 0.14 0.11 0.06 0.04 0.03 0.04 0.04 0.04 0.02 0.01 0.01 0.01 0.01 0.00 0.00 0.00 0.00 0.00 0.01 0.05 0.04 0.07 0.14 0.06 0.03 0.02 0.02 0.02 0.02 0.03 0.04

GFSNE_prec_precacc24_051.txt.gz
Total_Precipitation_Accumulation
0.05 0.06 0.04 0.02 0.02 0.01 0.01 0.05 0.11 0.07 0.01 0.00 0.00 0.00 0.00 0.00 0.00 0.00 0.00 0.00 0.00 0.00 0.00 0.00 0.00 0.00 0.00 0.00 0.00 0.01 0.01 0.01 0.02 0.02 0.03 0.03 0.05 0.07
0.07 0.08 0.03 0.02 0.02 0.02 0.02 0.01 0.01 0.02 0.00 0.00 0.00 0.00 0.00 0.00 0.00 0.00 0.00 0.00 0.00 0.00 0.00 0.00 0.00 0.00 0.00 0.00 0.00 0.00 0.00 0.00 0.00 0.01 0.01 0.02 0.03 0.05
0.11 0.05 0.01 0.01 0.01 0.01 0.00 0.00 0.00 0.00 0.00 0.00 0.00 0.00 0.00 0.00 0.00 0.00 0.00 0.00 0.00 0.00 0.00 0.00 0.00 0.00 0.00 0.00 0.00 0.00 0.00 0.00 0.00 0.00 0.01 0.01 0.02 0.03
0.03 0.01 0.00 0.00 0.00 0.00 0.00 0.00 0.00 0.00 0.00 0.00 0.00 0.00 0.00 0.00 0.00 0.00 0.00 0.00 0.00 0.00 0.00 0.00 0.00 0.01 0.00 0.00 0.01 0.01 0.01 0.01 0.01 0.01 0.01 0.01 0.01 0.02
0.02 0.01 0.00 0.00 0.00 0.00 0.00 0.00 0.00 0.00 0.00 0.00 0.00 0.00 0.00 0.00 0.00 0.00 0.00 0.00 0.00 0.00 0.00 0.01 0.01 0.01 0.01 0.01 0.01 0.01 0.00 0.00 0.00 0.00 0.00 0.00 0.00 0.01
0.00 0.00 0.00 0.00 0.00 0.00 0.00 0.00 0.01 0.00 0.00 0.00 0.00 0.00 0.00 0.00 0.00 0.00 0.01 0.00 0.00 0.00 0.00 0.00 0.01 0.02 0.01 0.01 0.00 0.01 0.01 0.02 0.02 0.01 0.00 0.00 0.00 0.00
0.00 0.00 0.00 0.00 0.00 0.00 0.00 0.00 0.01 0.01 0.01 0.00 0.00 0.00 0.00 0.00 0.01 0.01 0.01 0.00 0.00 0.00 0.00 0.00 0.01 0.02 0.01 0.01 0.00 0.01 0.02 0.02 0.02 0.02 0.02 0.02 0.01 0.01
0.00 0.00 0.00 0.00 0.00 0.00 0.00 0.00 0.00 0.00 0.01 0.01 0.01 0.01 0.00 0.02 0.02 0.01 0.01 0.01 0.01 0.00 0.01 0.01 0.01 0.03 0.07 0.10 0.12 0.12 0.13 0.11 0.05 0.01 0.01 0.02 0.02 0.02
0.00 0.00 0.00 0.00 0.00 0.00 0.00 0.00 0.00 0.00 0.00 0.00 0.01 0.02 0.02 0.02 0.01 0.00 0.00 0.02 0.03 0.00 0.00 0.01 0.00 0.01 0.01 0.01 0.02 0.02 0.02 0.02 0.02 0.01 0.02 0.03 0.02 0.02
0.00 0.00 0.00 0.00 0.00 0.00 0.00 0.00 0.00 0.00 0.00 0.00 0.00 0.00 0.00 0.00 0.01 0.01 0.04 0.04 0.01 0.00 0.00 0.03 0.00 0.00 0.00 0.00 0.00 0.00 0.01 0.01 0.01 0.00 0.02 0.05 0.01 0.02
0.00 0.00 0.00 0.00 0.00 0.00 0.00 0.00 0.00 0.00 0.00 0.00 0.00 0.00 0.00 0.00 0.00 0.03 0.03 0.04 0.03 0.00 0.00 0.02 0.01 0.01 0.00 0.00 0.00 0.00 0.00 0.00 0.00 0.00 0.02 0.12 0.04 0.01
0.00 0.00 0.00 0.00 0.00 0.00 0.00 0.00 0.01 0.00 0.01 0.01 0.01 0.00 0.00 0.00 0.01 0.02 0.05 0.11 0.08 0.05 0.00 0.10 0.03 0.05 0.08 0.03 0.02 0.02 0.01 0.00 0.00 0.00 0.01 0.11 0.10 0.03
0.00 0.00 0.00 0.00 0.00 0.00 0.01 0.01 0.01 0.00 0.02 0.03 0.02 0.02 0.01 0.01 0.00 0.00 0.01 0.04 0.09 0.07 0.01 0.24 0.12 0.05 0.10 0.03 0.01 0.02 0.02 0.02 0.02 0.01 0.04 0.11 0.20 0.15
0.00 0.00 0.01 0.00 0.00 0.00 0.01 0.02 0.02 0.03 0.05 0.05 0.03 0.03 0.02 0.01 0.00 0.00 0.00 0.02 0.04 0.09 0.07 0.08 0.16 0.08 0.09 0.04 0.01 0.01 0.01 0.03 0.04 0.05 0.14 0.19 0.31 0.25
0.00 0.00 0.00 0.00 0.01 0.02 0.02 0.01 0.04 0.10 0.11 0.12 0.07 0.03 0.01 0.01 0.01 0.00 0.00 0.00 0.01 0.04 0.02 0.05 0.06 0.03 0.04 0.04 0.03 0.01 0.02 0.03 0.06 0.14 0.40 0.38 0.44 0.36
0.02 0.03 0.03 0.04 0.05 0.05 0.04 0.06 0.09 0.07 0.06 0.06 0.04 0.03 0.04 0.05 0.02 0.01 0.01 0.00 0.02 0.07 0.06 0.10 0.05 0.04 0.02 0.01 0.04 0.02 0.04 0.08 0.10 0.11 0.31 0.59 0.69 0.62
0.06 0.09 0.08 0.07 0.06 0.05 0.06 0.06 0.08 0.11 0.11 0.07 0.07 0.06 0.05 0.04 0.03 0.01 0.01 0.01 0.01 0.01 0.01 0.05 0.06 0.03 0.02 0.04 0.06 0.03 0.04 0.04 0.07 0.31 0.18 0.46 0.70 0.74
0.20 0.15 0.09 0.08 0.08 0.06 0.08 0.09 0.10 0.10 0.08 0.08 0.08 0.07 0.07 0.05 0.03 0.02 0.02 0.01 0.01 0.00 0.00 0.00 0.05 0.07 0.06 0.03 0.04 0.06 0.05 0.02 0.02 0.03 0.09 0.40 0.56 0.89
0.23 0.12 0.09 0.08 0.07 0.07 0.09 0.11 0.11 0.09 0.09 0.09 0.08 0.05 0.04 0.05 0.04 0.03 0.03 0.02 0.00 0.01 0.00 0.00 0.02 0.01 0.07 0.13 0.14 0.03 0.04 0.03 0.04 0.01 0.02 0.17 0.50 0.52
0.10 0.07 0.07 0.07 0.08 0.08 0.08 0.09 0.08 0.09 0.10 0.06 0.04 0.03 0.05 0.05 0.06 0.04 0.03 0.02 0.01 0.00 0.00 0.00 0.00 0.00 0.08 0.18 0.22 0.03 0.03 0.31 0.10 0.04 0.02 0.01 0.10 0.31
0.08 0.08 0.07 0.09 0.13 0.15 0.16 0.18 0.21 0.21 0.15 0.07 0.04 0.04 0.05 0.06 0.06 0.04 0.02 0.01 0.01 0.01 0.00 0.00 0.00 0.00 0.04 0.13 0.22 0.12 0.06 0.15 0.11 0.06 0.03 0.02 0.01 0.02
0.10 0.11 0.10 0.12 0.16 0.18 0.19 0.20 0.21 0.18 0.15 0.09 0.05 0.04 0.05 0.05 0.05 0.05 0.03 0.02 0.01 0.00 0.00 0.00 0.00 0.00 0.04 0.11 0.17 0.12 0.05 0.06 0.02 0.01 0.01 0.03 0.04 0.08
0.12 0.13 0.13 0.14 0.15 0.16 0.16 0.16 0.15 0.14 0.13 0.12 0.09 0.07 0.08 0.06 0.05 0.04 0.03 0.02 0.01 0.00 0.00 0.00 0.00 0.00 0.03 0.03 0.05 0.11 0.05 0.03 0.03 0.02 0.04 0.02 0.03 0.04

GFSNE_prec_precacc24_054.txt.gz
Total_Precipitation_Accumulation
0.04 0.05 0.04 0.06 0.05 0.02 0.02 0.04 0.11 0.06 0.01 0.00 0.00 0.00 0.00 0.00 0.00 0.00 0.00 0.00 0.00 0.00 0.00 0.00 0.00 0.00 0.00 0.00 0.00 0.01 0.01 0.01 0.02 0.02 0.02 0.03 0.04 0.07
0.10 0.11 0.10 0.07 0.05 0.02 0.02 0.01 0.01 0.02 0.00 0.00 0.00 0.00 0.00 0.00 0.00 0.00 0.00 0.00 0.00 0.00 0.00 0.00 0.00 0.00 0.00 0.00 0.00 0.00 0.00 0.00 0.00 0.01 0.01 0.02 0.04 0.06
0.15 0.09 0.04 0.04 0.01 0.00 0.00 0.00 0.00 0.00 0.00 0.00 0.00 0.00 0.00 0.00 0.00 0.00 0.00 0.00 0.00 0.00 0.00 0.00 0.00 0.00 0.00 0.00 0.00 0.00 0.00 0.00 0.00 0.00 0.01 0.01 0.02 0.04
0.09 0.06 0.03 0.01 0.00 0.00 0.00 0.00 0.00 0.00 0.00 0.00 0.00 0.00 0.00 0.00 0.00 0.00 0.00 0.00 0.00 0.00 0.00 0.00 0.00 0.00 0.00 0.00 0.01 0.01 0.01 0.01 0.01 0.01 0.01 0.01 0.01 0.02
0.05 0.02 0.01 0.01 0.00 0.00 0.00 0.00 0.00 0.00 0.00 0.00 0.00 0.00 0.00 0.00 0.00 0.00 0.00 0.00 0.00 0.00 0.00 0.00 0.00 0.00 0.00 0.01 0.01 0.01 0.00 0.00 0.00 0.00 0.00 0.00 0.01 0.01
0.01 0.01 0.01 0.00 0.00 0.00 0.00 0.01 0.01 0.01 0.00 0.01 0.00 0.00 0.00 0.00 0.00 0.00 0.00 0.00 0.00 0.00 0.00 0.00 0.00 0.00 0.00 0.00 0.00 0.01 0.01 0.02 0.01 0.01 0.00 0.00 0.00 0.00
0.00 0.00 0.00 0.00 0.00 0.00 0.00 0.00 0.01 0.01 0.01 0.01 0.00 0.00 0.00 0.00 0.00 0.00 0.00 0.00 0.00 0.00 0.00 0.00 0.00 0.00 0.00 0.00 0.00 0.01 0.02 0.02 0.02 0.02 0.02 0.02 0.01 0.01
0.00 0.00 0.00 0.00 0.00 0.00 0.00 0.00 0.00 0.00 0.00 0.01 0.01 0.01 0.00 0.01 0.01 0.00 0.00 0.00 0.01 0.00 0.00 0.00 0.00 0.00 0.00 0.03 0.08 0.07 0.06 0.08 0.05 0.01 0.01 0.01 0.02 0.02
0.00 0.00 0.00 0.00 0.00 0.00 0.00 0.00 0.00 0.00 0.00 0.00 0.00 0.01 0.01 0.01 0.01 0.00 0.00 0.01 0.02 0.00 0.00 0.01 0.00 0.00 0.00 0.00 0.01 0.01 0.02 0.02 0.02 0.01 0.02 0.02 0.02 0.00
0.00 0.00 0.00 0.00 0.00 0.00 0.00 0.00 0.00 0.00 0.00 0.00 0.00 0.00 0.00 0.00 0.01 0.01 0.04 0.04 0.00 0.00 0.00 0.03 0.00 0.00 0.00 0.00 0.00 0.00 0.01 0.01 0.01 0.00 0.00 0.01 0.00 0.00
0.00 0.00 0.00 0.00 0.00 0.00 0.00 0.00 0.00 0.00 0.00 0.00 0.01 0.01 0.01 0.00 0.00 0.03 0.02 0.03 0.02 0.00 0.00 0.01 0.00 0.00 0.00 0.00 0.00 0.00 0.00 0.00 0.00 0.00 0.00 0.01 0.02 0.00
0.00 0.00 0.00 0.00 0.00 0.00 0.00 0.00 0.01 0.00 0.01 0.02 0.02 0.02 0.01 0.00 0.01 0.01 0.01 0.04 0.03 0.04 0.00 0.07 0.01 0.04 0.07 0.00 0.00 0.00 0.00 0.00 0.00 0.00 0.00 0.01 0.04 0.01
0.00 0.00 0.00 0.00 0.00 0.00 0.01 0.02 0.02 0.01 0.03 0.04 0.04 0.05 0.03 0.01 0.00 0.00 0.00 0.01 0.03 0.03 0.01 0.23 0.12 0.05 0.09 0.02 0.00 0.00 0.01 0.01 0.01 0.01 0.02 0.03 0.09 0.06
0.00 0.00 0.01 0.00 0.00 0.00 0.01 0.02 0.02 0.03 0.08 0.08 0.07 0.06 0.06 0.08 0.05 0.02 0.01 0.00 0.00 0.04 0.06 0.07 0.16 0.08 0.09 0.04 0.01 0.00 0.00 0.01 0.03 0.04 0.07 0.10 0.15 0.13
0.00 0.00 0.00 0.00 0.01 0.02 0.02 0.01 0.04 0.10 0.12 0.13 0.09 0.04 0.02 0.01 0.02 0.03 0.02 0.00 0.00 0.01 0.01 0.05 0.06 0.03 0.04 0.04 0.03 0.00 0.02 0.01 0.05 0.11 0.25 0.23 0.30 0.29
0.02 0.03 0.03 0.04 0.05 0.05 0.05 0.06 0.09 0.08 0.08 0.07 0.05 0.04 0.06 0.07 0.05 0.02 0.01 0.01 0.03 0.01 0.00 0.03 0.03 0.04 0.02 0.01 0.03 0.02 0.03 0.05 0.08 0.11 0.29 0.51 0.61 0.67
0.06 0.09 0.08 0.07 0.06 0.06 0.06 0.06 0.09 0.11 0.12 0.09 0.10 0.10 0.12 0.12 0.08 0.03 0.02 0.02 0.02 0.01 0.00 0.00 0.00 0.01 0.01 0.04 0.05 0.02 0.03 0.04 0.06 0.30 0.18 0.45 0.71 0.80
0.20 0.15 0.09 0.08 0.08 0.06 0.08 0.09 0.10 0.11 0.10 0.10 0.12 0.11 0.12 0.14 0.09 0.03 0.03 0.02 0.01 0.01 0.00 0.00 0.01 0.00 0.01 0.02 0.03 0.03 0.04 0.03 0.01 0.03 0.09 0.40 0.55 0.90
0.23 0.12 0.09 0.08 0.07 0.07 0.10 0.11 0.12 0.10 0.10 0.12 0.11 0.09 0.07 0.07 0.07 0.06 0.05 0.03 0.02 0.01 0.00 0.00 0.01 0.01 0.02 0.05 0.09 0.03 0.03 0.02 0.03 0.02 0.02 0.17 0.50 0.53
0.09 0.07 0.07 0.07 0.08 0.08 0.09 0.09 0.08 0.09 0.11 0.08 0.07 0.05 0.06 0.07 0.08 0.06 0.04 0.04 0.03 0.01 0.00 0.00 0.00 0.00 0.05 0.10 0.13 0.03 0.03 0.23 0.09 0.03 0.01 0.01 0.10 0.36
0.07 0.08 0.07 0.09 0.13 0.16 0.17 0.19 0.21 0.23 0.25 0.26 0.22 0.17 0.09 0.07 0.08 0.06 0.05 0.03 0.04 0.03 0.01 0.00 0.00 0.00 0.04 0.12 0.16 0.09 0.07 0.16 0.11 0.05 0.03 0.01 0.01 0.03
0.09 0.11 0.10 0.12 0.16 0.18 0.20 0.20 0.21 0.20 0.21 0.21 0.17 0.13 0.10 0.07 0.06 0.05 0.05 0.06 0.02 0.02 0.01 0.00 0.00 0.00 0.03 0.08 0.10 0.08 0.06 0.06 0.02 0.01 0.01 0.03 0.03 0.04
0.12 0.14 0.13 0.14 0.15 0.16 0.16 0.16 0.15 0.14 0.16 0.18 0.18 0.16 0.15 0.13 0.08 0.07 0.07 0.04 0.04 0.01 0.00 0.00 0.00 0.00 0.01 0.03 0.05 0.08 0.05 0.03 0.03 0.03 0.04 0.02 0.03 0.04

GFSNE_prec_precacc24_057.txt.gz
Total_Precipitation_Accumulation
0.10 0.13 0.15 0.16 0.10 0.06 0.05 0.06 0.11 0.06 0.01 0.00 0.00 0.00 0.00 0.00 0.00 0.00 0.00 0.00 0.00 0.00 0.00 0.00 0.00 0.00 0.00 0.00 0.00 0.01 0.01 0.01 0.01 0.01 0.02 0.03 0.04 0.07
0.20 0.22 0.17 0.09 0.05 0.02 0.02 0.02 0.02 0.02 0.00 0.00 0.00 0.00 0.00 0.00 0.00 0.00 0.00 0.00 0.00 0.00 0.00 0.00 0.00 0.00 0.00 0.00 0.00 0.00 0.00 0.00 0.00 0.01 0.01 0.02 0.04 0.06
0.22 0.14 0.06 0.04 0.03 0.01 0.00 0.00 0.00 0.00 0.00 0.00 0.00 0.00 0.00 0.00 0.00 0.00 0.00 0.00 0.00 0.00 0.00 0.00 0.00 0.00 0.00 0.00 0.00 0.00 0.00 0.00 0.00 0.00 0.01 0.01 0.02 0.04
0.11 0.07 0.04 0.02 0.01 0.00 0.00 0.00 0.00 0.00 0.00 0.00 0.00 0.00 0.00 0.00 0.00 0.00 0.00 0.00 0.00 0.00 0.00 0.00 0.00 0.00 0.00 0.00 0.00 0.00 0.00 0.00 0.01 0.01 0.01 0.01 0.01 0.02
0.06 0.03 0.01 0.01 0.00 0.00 0.00 0.00 0.00 0.00 0.00 0.00 0.00 0.00 0.00 0.00 0.00 0.00 0.00 0.00 0.00 0.00 0.00 0.00 0.00 0.00 0.00 0.00 0.00 0.00 0.00 0.00 0.00 0.00 0.00 0.00 0.01 0.01
0.01 0.01 0.01 0.00 0.00 0.00 0.00 0.01 0.01 0.01 0.01 0.01 0.01 0.00 0.00 0.00 0.00 0.00 0.01 0.00 0.00 0.00 0.00 0.00 0.00 0.00 0.00 0.00 0.00 0.00 0.00 0.01 0.01 0.01 0.00 0.00 0.00 0.00
0.00 0.00 0.00 0.00 0.00 0.00 0.00 0.00 0.01 0.02 0.02 0.01 0.00 0.00 0.00 0.00 0.00 0.01 0.01 0.00 0.00 0.00 0.00 0.00 0.00 0.00 0.00 0.00 0.00 0.00 0.00 0.01 0.02 0.02 0.02 0.02 0.02 0.01
0.00 0.00 0.00 0.00 0.00 0.00 0.00 0.00 0.00 0.01 0.01 0.01 0.01 0.01 0.00 0.01 0.01 0.02 0.01 0.01 0.01 0.00 0.00 0.00 0.00 0.00 0.00 0.00 0.00 0.00 0.02 0.04 0.03 0.00 0.01 0.01 0.02 0.02
0.00 0.00 0.00 0.00 0.00 0.00 0.00 0.00 0.00 0.00 0.00 0.00 0.00 0.00 0.01 0.01 0.03 0.03 0.03 0.04 0.03 0.00 0.00 0.01 0.00 0.00 0.00 0.00 0.00 0.00 0.00 0.01 0.02 0.01 0.02 0.02 0.02 0.01
0.00 0.00 0.00 0.00 0.00 0.00 0.00 0.00 0.00 0.00 0.00 0.00 0.00 0.00 0.01 0.01 0.02 0.04 0.06 0.05 0.01 0.00 0.00 0.01 0.00 0.00 0.00 0.00 0.00 0.00 0.01 0.01 0.01 0.00 0.00 0.01 0.00 0.00
0.00 0.00 0.00 0.00 0.00 0.00 0.00 0.00 0.00 0.00 0.00 0.00 0.02 0.02 0.02 0.01 0.01 0.04 0.01 0.02 0.01 0.00 0.00 0.01 0.00 0.00 0.00 0.00 0.00 0.00 0.00 0.00 0.00 0.00 0.00 0.01 0.01 0.01
0.00 0.00 0.00 0.00 0.00 0.00 0.00 0.00 0.01 0.00 0.01 0.02 0.02 0.02 0.01 0.01 0.01 0.01 0.01 0.03 0.02 0.02 0.00 0.05 0.01 0.04 0.07 0.00 0.00 0.00 0.00 0.00 0.00 0.00 0.01 0.01 0.01 0.01
0.00 0.00 0.00 0.00 0.00 0.00 0.01 0.02 0.02 0.01 0.03 0.04 0.04 0.05 0.05 0.06 0.05 0.05 0.06 0.08 0.06 0.04 0.00 0.13 0.10 0.05 0.09 0.02 0.00 0.00 0.00 0.01 0.01 0.01 0.01 0.02 0.03 0.05
0.00 0.00 0.01 0.00 0.00 0.00 0.01 0.02 0.02 0.03 0.08 0.08 0.07 0.06 0.06 0.09 0.09 0.07 0.04 0.03 0.02 0.02 0.00 0.04 0.15 0.08 0.08 0.04 0.01 0.00 0.00 0.00 0.02 0.03 0.05 0.06 0.06 0.07
0.00 0.00 0.00 0.00 0.01 0.02 0.02 0.01 0.04 0.11 0.13 0.14 0.10 0.05 0.02 0.02 0.03 0.04 0.04 0.01 0.00 0.00 0.00 0.02 0.05 0.02 0.03 0.04 0.03 0.00 0.02 0.01 0.03 0.09 0.14 0.15 0.18 0.20
0.02 0.03 0.03 0.04 0.05 0.05 0.05 0.06 0.09 0.08 0.09 0.09 0.07 0.06 0.06 0.08 0.07 0.05 0.06 0.04 0.05 0.01 0.00 0.00 0.00 0.00 0.01 0.01 0.03 0.02 0.03 0.05 0.04 0.08 0.17 0.29 0.33 0.46
0.06 0.09 0.08 0.07 0.06 0.06 0.06 0.06 0.09 0.11 0.12 0.09 0.10 0.11 0.13 0.13 0.11 0.09 0.11 0.09 0.07 0.01 0.00 0.00 0.00 0.00 0.00 0.03 0.05 0.02 0.03 0.04 0.05 0.19 0.16 0.42 0.62 0.66
0.19 0.15 0.09 0.08 0.08 0.06 0.08 0.09 0.10 0.11 0.10 0.10 0.12 0.12 0.13 0.16 0.17 0.17 0.18 0.13 0.04 0.01 0.00 0.00 0.00 0.00 0.00 0.01 0.03 0.03 0.03 0.03 0.01 0.02 0.09 0.38 0.53 0.89
0.23 0.12 0.09 0.08 0.07 0.07 0.10 0.11 0.12 0.10 0.10 0.12 0.12 0.10 0.09 0.09 0.10 0.12 0.07 0.03 0.02 0.01 0.00 0.00 0.00 0.01 0.02 0.02 0.03 0.02 0.03 0.02 0.03 0.02 0.02 0.17 0.44 0.50
0.09 0.07 0.07 0.07 0.08 0.08 0.09 0.09 0.08 0.09 0.11 0.08 0.08 0.08 0.10 0.11 0.14 0.10 0.07 0.04 0.03 0.02 0.01 0.00 0.00 0.00 0.04 0.05 0.07 0.01 0.03 0.15 0.06 0.03 0.01 0.01 0.09 0.35
0.07 0.08 0.07 0.09 0.13 0.16 0.17 0.19 0.21 0.23 0.25 0.26 0.24 0.25 0.25 0.26 0.24 0.18 0.10 0.04 0.04 0.05 0.02 0.00 0.00 0.00 0.04 0.10 0.11 0.06 0.07 0.14 0.10 0.05 0.02 0.01 0.01 0.03
0.09 0.11 0.10 0.12 0.16 0.18 0.20 0.20 0.21 0.21 0.21 0.21 0.19 0.16 0.14 0.13 0.11 0.11 0.10 0.08 0.04 0.03 0.02 0.00 0.00 0.00 0.01 0.05 0.07 0.06 0.05 0.06 0.02 0.01 0.01 0.03 0.03 0.03
0.12 0.14 0.13 0.14 0.15 0.16 0.17 0.16 0.15 0.14 0.16 0.19 0.19 0.20 0.20 0.18 0.14 0.13 0.11 0.07 0.05 0.03 0.02 0.02 0.01 0.00 0.00 0.02 0.03 0.04 0.04 0.03 0.02 0.02 0.04 0.02 0.03 0.03